Regional Weather Roundup
Issued by NWS

Home | Current Version | Previous Version | Graphics & Text | Print | Product List | Glossary On
Versions: 1 2 3 4 5 6 7 8 9 10 11 12 13 14 15 16 17 18 19 20 21 22 23 24 25 26 27
000
ASUS45 KBOU 280810
RWRCO

WEATHER ROUNDUP FOR COLORADO
NATIONAL WEATHER SERVICE DENVER/BOULDER CO
200 AM MDT WED SEP 28 2016

NOTE: "FAIR" INDICATES FEW OR NO CLOUDS BELOW 12000 FEET WITH NO
SIGNIFICANT WEATHER AND/OR OBSTRUCTIONS TO VISIBILITY.

COZ001>005-013-030-031-280900-
...NORTHWEST COLORADO...

CITY           SKY/WX    TMP DP  RH WIND       PRES   REMARKS
CRAIG          FAIR      39  34  82 CALM      30.31R
HAYDEN         FAIR      48  30  49 E10       30.31S
MEEKER         FAIR      43  37  79 NE6       30.31R
MOUNT WERNER   NOT AVBL
STEAMBOAT SPGS FAIR      44  33  67 CALM      30.34S
WALDEN           N/A     32  23  69 SE10      30.43S WCI  24
$$

COZ006>008-011-280900-
...WEST CENTRAL VALLEYS...

CITY           SKY/WX    TMP DP  RH WIND       PRES   REMARKS
GRAND JUNCTION FAIR      56  37  49 E8        30.19R
MONTROSE       FAIR      50  38  63 S8        30.28R
EAGLE          FAIR      45  30  57 E7        30.35R
RIFLE          FAIR      50  41  71 CALM      30.26R
DELTA          FAIR      55  37  50 NE6       30.24R
NUCLA          FAIR      52  36  54 E8        30.29S
$$

COZ017>023-064>068-280900-
...SOUTHWEST COLORADO...

CITY           SKY/WX    TMP DP  RH WIND       PRES   REMARKS
DURANGO        FAIR      40  33  76 NE6       30.30R
CORTEZ         FAIR      45  36  70 E3        30.26S
PAGOSA SPRINGS FAIR      41  30  65 CALM      30.36S
TELLURIDE      FAIR      47  35  63 SE6       30.46S
WOLF CREEK PAS FAIR      43  23  45 MISG      30.64S
$$

COZ009-010-012-014-032>034-037-058>063-280900-
...CENTRAL COLORADO...

CITY           SKY/WX    TMP DP  RH WIND       PRES   REMARKS
ASPEN          FAIR      44  31  60 S7        30.37S
BUENA VISTA    FAIR      47  26  44 NW9       30.40S
COPPER MTN     FAIR      46  21  36 S6        30.64S
BERTHOUD PASS  FAIR      37  27  65 E22       30.67S
COTTONWOOD PAS FAIR      54  23  30 SW9       30.51S
GUNNISON       FAIR      39  32  75 CALM      30.40R
KREMMLING      FAIR      37  23  56 CALM      30.41R
LEADVILLE      FAIR      39  21  48 S6        30.50R
MONARCH PASS   FAIR      43  25  49 E6        30.73S
SALIDA         FAIR      50  30  46 W7        30.45S
SUNLIGHT       FAIR      46  32  57 NE5       30.58S
WILKERSON PASS FAIR      45  18  33 E6        30.63R
$$

COZ069>075-280900-
...SAN LUIS VALLEY/SANGRE DE CRISTO MOUNTAINS...

CITY           SKY/WX    TMP DP  RH WIND       PRES   REMARKS
ALAMOSA        FAIR      40  27  59 E6        30.35S
LA VETA PASS   FAIR      46  21  36 MISG      30.52R
SAGUACHE       NOT AVBL
$$

COZ035-036-038>040-280900-
...NORTHERN COLORADO FRONT RANGE...

CITY           SKY/WX    TMP DP  RH WIND       PRES   REMARKS
DENVER INTL AP FAIR      56  27  32 SW8       30.24R
DMNS CITY PARK   N/A     53  35  50 E8        30.25R
AURORA         CLEAR     54  28  37 S8        30.25R
FRONT RANGE AP NOT AVBL
ERIE MUNI ARPT FAIR      48  32  55 CALM      30.23R
BOULDER MUN AP FAIR      57  32  38 SW6       30.23R
CENTENNIAL     FAIR      50  30  46 CALM      30.26R
BROOMFIELD     FAIR      63  28  27 NW6       30.26R
FORT COLLINS   FAIR      54  36  50 N9        30.22R
LONGMONT       FAIR      51  34  53 CALM      30.24R
$$

COZ041-046-047-076>085-087-088-280900-
...PIKES PEAK/PALMER DIVIDE AND SOUTHERN FOOTHILLS...

CITY           SKY/WX    TMP DP  RH WIND       PRES   REMARKS
COLO. SPRINGS  FAIR      52  31  44 W6        30.28R
A. F. ACADEMY  FAIR      46  26  46 N13       30.29S
SCHRIEVER AFB  NOT AVBL
ELLICOTT       NOT AVBL
FALCON         FAIR      55  25  30 NW6       30.32S
FORT CARSON    FAIR      55  31  40 NW9       30.24R
LIMON          FAIR      40  23  50 N5        30.22R
MONUMENT HILL  FAIR      45  27  49 SW7       30.34S
TRINIDAD       FAIR      52  33  48 W13       30.22R
$$

COZ042>045-048>051-090-091-280900-
...NORTHEAST COLORADO...

CITY           SKY/WX    TMP DP  RH WIND       PRES   REMARKS
GREELEY ARPT   FAIR      46  36  66 N7        30.21R
AKRON          FAIR      59  29  31 S3        30.18R
BURLINGTON     FAIR      49  38  65 W10       30.14R
WRAY           FAIR      45  34  65 W3        30.14R
STERLING       FAIR      43  34  70 S3        30.15R
HOLYOKE        FAIR      54  37  54 NW3       30.14S
FORT MORGAN    FAIR      47  30  52 W8        30.19R
$$

COZ086-089-092>099-280900-
...SOUTHEAST COLORADO...

CITY           SKY/WX    TMP DP  RH WIND       PRES   REMARKS
PUEBLO         FAIR      55  33  43 NW7       30.17R
LA JUNTA       FAIR      56  35  45 N3        30.13R
LAMAR          FAIR      51  38  60 CALM      30.10R
SPRINGFIELD    NOT AVBL
$$




USA.gov is the U.S. government's official web portal to all federal, state and local government web resources and services.